Location: Newark
(49.1000°N, 0.4667°W)
Time: 03:50:08
(UTC+00:00)

LilacSat-2 - Visible Passes

Search period start: 18 October 2021 00:00
Search period end: 28 October 2021 00:00
Orbit: 510 x 534 km, 97.5° (Epoch: 17 October)

Date Brightness Start Highest point End Pass type
(mag) Time Alt. Az. Time Alt. Az. Time Alt. Az.
18 Oct ? 05:50:32 10° NNE 05:54:16 64° ESE 05:57:58 10° S visible
18 Oct ? 18:11:28 10° WSW 18:13:30 14° W 18:15:33 10° WNW visible
19 Oct ? 05:37:44 10° NNE 05:41:22 45° E 05:44:57 10° S visible
19 Oct ? 17:57:46 10° SW 18:00:31 19° W 18:03:15 10° NW visible
20 Oct ? 05:25:01 10° NNE 05:28:26 32° E 05:31:48 10° SSE visible
20 Oct ? 17:44:20 10° SSW 17:47:31 25° W 17:50:43 10° NW visible
21 Oct ? 05:12:23 10° NE 05:15:28 24° E 05:18:31 10° SSE visible
21 Oct ? 17:31:05 10° SSW 17:34:35 34° W 17:38:04 10° NNW visible
22 Oct ? 04:59:54 10° NE 05:02:28 18° E 05:05:03 10° SE visible
23 Oct ? 04:47:40 10° ENE 04:49:28 13° E 04:51:15 10° ESE visible
25 Oct ? 05:54:31 10° NNE 05:58:16 71° ESE 06:02:00 10° S visible
25 Oct ? 18:15:52 10° WSW 18:17:33 13° W 18:19:13 10° WNW visible
26 Oct ? 05:41:41 10° NNE 05:45:22 50° E 05:49:00 10° S visible
26 Oct ? 18:01:59 10° SW 18:04:31 17° W 18:07:03 10° NW visible
27 Oct ? 05:28:55 10° NNE 05:32:24 35° E 05:35:53 10° SSE visible
27 Oct ? 17:48:29 10° SSW 17:51:31 23° W 17:54:34 10° NW visible
